Regional Weather Roundup
Issued by NWS

Home | Current Version | Previous Version | Text Only | Print | Product List | Glossary On
Versions: 1 2 3 4 5 6 7 8 9 10 11 12 13 14 15 16 17 18 19 20 21 22 23 24 25 26 27 28 29 30 31 32 33 34 35 36 37 38 39 40 41 42 43 44 45 46 47 48 49 50
000
ASUS43 KOAX 061010
RWRNE

WEATHER ROUNDUP FOR NEBRASKA
NATIONAL WEATHER SERVICE OMAHA NE
500 AM CDT MON JUL 06 2015

NOTES: SATELLITE DATA IS BEING USED TO AUGMENT CLOUD COVER ABOVE
       12000 FEET.
       "FAIR" INDICATES FEW OR NO CLOUDS BELOW 12,000 FEET WITH NO
       SIGNIFICANT WEATHER AND/OR OBSTRUCTIONS TO VISIBILITY.

  * THESE STATIONS DO NOT REPORT WEATHER SUCH AS RAIN...SNOW OR FOG.

NEZ001>004-019>022-054>056-061100-
NEBRASKA PANHANDLE

CITY           SKY/WX    TMP DP  RH WIND       PRES   REMARKS
SCOTTSBLUFF    LGT RAIN  61  58  90 N10       30.12S
ALLIANCE       CLOUDY    60  58  92 N17       30.08S
CHADRON        CLOUDY    60  57  89 N12G20    30.12S FOG
KIMBALL          N/A    N/A N/A N/A MISG        N/A
SIDNEY         LGT RAIN  62  60  93 N9        30.10R
$$

NEZ057>060-069>072-079>082-061100-
SOUTHWEST NEBRASKA

CITY           SKY/WX    TMP DP  RH WIND       PRES   REMARKS
NORTH PLATTE   CLOUDY    66  62  87 N8        29.94S
IMPERIAL       CLOUDY    65  62  90 N16       29.98S
LEXINGTON      LGT RAIN  69  67  92 SE3       29.90R
MCCOOK         CLOUDY    69  66  90 NE9       29.88R
OGALLALA       CLOUDY    65  62  88 N13       30.01R
$$

NEZ005>010-023>029-035>040-094-061100-
NORTH CENTRAL NEBRASKA

CITY           SKY/WX    TMP DP  RH WIND       PRES   REMARKS
VALENTINE      CLOUDY    63  61  93 N14       30.01R
AINSWORTH      CLOUDY    64  64 100 N15       29.97R
BROKEN BOW     LGT RAIN  68  65  90 N5        29.91R
O`NEILL        LGT RAIN  68  67  98 NW9       29.88R
ORD            LGT RAIN  69  67  93 SE3       29.89R
THEDFORD       CLOUDY    65  63  93 N10G21    29.98R
$$

NEZ041-046>049-061>064-073>077-083>087-061100-
SOUTH CENTRAL NEBRASKA

CITY           SKY/WX    TMP DP  RH WIND       PRES   REMARKS
GRAND ISLAND   CLOUDY    69  68  96 NE7       29.87F
AURORA         CLOUDY    70  70 100 NE5       29.86F
HASTINGS       CLOUDY    70  68  93 NE9       29.86S
HEBRON         CLOUDY    77  66  69 NE8       29.86R
HOLDREGE       CLOUDY    69  66  90 N7        29.88R
KEARNEY *      CLOUDY    70  66  88 NE7       29.88R
YORK           LGT RAIN  70  68  94 NE9       29.87F
$$

NEZ011>018-030>034-042>045-061100-
NORTHEAST NEBRASKA

CITY           SKY/WX    TMP DP  RH WIND       PRES   REMARKS
NORFOLK        CLOUDY    70  67  90 S12       29.89R
ALBION         DRIZZLE   70  66  88 SE8G17    29.91R
BLAIR          LGT RAIN  75  69  79 W7        29.85R
COLUMBUS *     CLOUDY    72  66  83 N7        29.84F
FREMONT        CLOUDY    75  71  87 NW14      29.89R
TEKAMAH        CLOUDY    74  71  91 N9        29.85R
WAYNE          CLOUDY    69  68  97 S6        29.87R
$$

NEZ050>053-065>068-078-088>093-061100-
SOUTHEAST NEBRASKA

CITY           SKY/WX    TMP DP  RH WIND       PRES   REMARKS
LINCOLN        CLOUDY    79  67  66 NW21G30   29.86R
OMAHA EPPLEY   CLOUDY    79  73  82 W8        29.83R
BEATRICE       CLOUDY    78  71  78 W5        29.86R
FALLS CITY     CLOUDY    80  72  76 S12       29.83R
NEBRASKA CITY  CLOUDY    79  69  71 W10       29.84R
PLATTSMOUTH    CLOUDY    78  71  80 SW12      29.84R
$$

NEZ044-045-051>053-067-061100-
OMAHA AREA

CITY           SKY/WX    TMP DP  RH WIND       PRES   REMARKS
OMAHA EPPLEY   CLOUDY    79  73  82 W8        29.83R
BLAIR          LGT RAIN  75  69  79 W7        29.85R
FREMONT        CLOUDY    75  71  87 NW14      29.89R
MILLARD        CLOUDY    79  71  77 W7        29.84R
OFFUTT AFB     MOCLDY    79  73  82 W6        29.83R
PLATTSMOUTH    CLOUDY    78  71  80 SW12      29.84R
WAHOO          LGT RAIN  74  69  82 NW13      29.86R
$$



USA.gov is the U.S. government's official web portal to all federal, state and local government web resources and services.